Flag for Germany Weather past 2 weeks in Hoyerswerda, Saxony, Germany

Now
41 °F

Overcast.


Feels Like: 41 °F
Forecast: 51 / 68 °F
Wind: 2 mph from Southwest

Location: Cottbus

Current Time: May 28, 2015 at 5:15:43 AM

Latest Report: May 28, 2015 at 5:00 AM


Visibility: 14 mi

Pressure: 30.08 "Hg

Humidity: 95%

Dew point: 40 °F

Location of HoyerswerdaLocation

Historic Weather in Hoyerswerda — Graph

°F

Hoyerswerda temperature yesterday

Maximum temperature yesterday: 56 °F (at 5:00 PM)
Minimum temperature yesterday: 46 °F (at 5:00 AM)
Average temperature yesterday: 52 °F

Past Weeks' High & Low Weather Summary

 TemperatureHumidityPressure
High72 °F (May 18, 6:00 PM)100% (May 15, 4:00 AM)30.33 "Hg (May 15, 4:00 AM)
Low34 °F (May 15, 5:00 AM)28% (May 24, 5:00 PM)29.63 "Hg (May 19, 3:00 AM)
Average55 °F64%30.02 "Hg
* Reported May 13 4:00 AM — May 28 4:00 AM, Hoyerswerda, Weather by CustomWeather, © 2015

Note: Actual official high and low records may vary slightly from our data, if they occured in-between our weather recording intervals... More about our weather records

Advertising

Hoyerswerda weather history for previous 24 hours

 ConditionsComfort  
Time TempWeatherWind HumidityBarometerVisibility
4:00 AM
Thu, May 28
41 °FClear.2 mph94%30.09 "Hg16 mi
3:00 AM43 °FOvercast.2 mph93%30.10 "Hg5 mi
2:00 AM42 °FFog.1 mph93%30.11 "Hg3 mi
1:00 AM47 °FOvercast.1 mph82%30.11 "Hg28 mi
12:00 AM50 °FOvercast.2 mph73%30.11 "Hg31 mi
11:00 PM
Wed, May 27
51 °FOvercast.2 mph67%30.12 "Hg31 mi
10:00 PM52 °FOvercast.2 mph66%30.12 "Hg34 mi
9:00 PM54 °FOvercast.2 mph60%30.12 "Hg37 mi
8:00 PM55 °FOvercast.2 mph58%30.12 "Hg37 mi
7:00 PM56 °FOvercast.3 mph56%30.13 "Hg31 mi
6:00 PM55 °FOvercast.5 mph58%30.12 "Hg31 mi
5:00 PM56 °FOvercast.5 mph57%30.13 "Hg34 mi
4:00 PM55 °FOvercast.3 mph57%30.12 "Hg34 mi
3:00 PM55 °FOvercast.5 mph59%30.13 "Hg31 mi
2:00 PM55 °FOvercast.6 mph61%30.13 "Hg40 mi
1:00 PM53 °FLight freezing rain. Low clouds.5 mph65%30.13 "Hg15 mi
12:00 PM54 °FOvercast.5 mph62%30.14 "Hg37 mi
11:00 AM54 °FOvercast.7 mph57%30.14 "Hg25 mi
10:00 AM53 °FOvercast.6 mph63%30.14 "Hg19 mi
9:00 AM51 °FOvercast.5 mph71%30.14 "Hg25 mi
8:00 AM50 °FScattered clouds.5 mph72%30.13 "Hg16 mi
7:00 AM48 °FSunny.2 mph76%30.13 "Hg18 mi
6:00 AM46 °FScattered clouds.2 mph80%30.13 "Hg28 mi
5:00 AM46 °FPartly sunny.2 mph82%30.12 "Hg28 mi
Weather by CustomWeather, © 2015

See weather overviewHow to use our weather pages